Hourly Weather Roundup
Issued by NWS Central Illinois

Home | Current Version | Previous Version | Text Only | Print | Product List | Glossary On
Versions: 1 2 3 4 5 6 7 8 9 10 11 12 13 14 15 16 17 18 19 20 21 22 23 24 25 26 27 28 29 30 31 32 33 34 35 36 37 38 39 40 41 42 43 44 45 46 47 48 49 50
000
NZUS43 KILX 120410
HWRILX

AREA WEATHER ROUNDUP
NATIONAL WEATHER SERVICE, LINCOLN IL
1100 PM CDT FRI JUL 11 2014


CITY           SKY/WX    TMP DP  RH WIND       PRES   REMARKS
BLOOMINGTON    CLOUDY    71  65  81 SE6       30.14R
CHAMPAIGN      CLOUDY    72  65  78 SE6       30.13F
DECATUR        CLOUDY    77  65  66 S9        30.12S
EFFINGHAM      LGT RAIN  73  64  71 SE5       30.14S
FLORA          CLEAR     72  66  80 S5        30.14S
GALESBURG      MOCLDY    73  68  83 E3        30.09S
JACKSONVILLE   CLOUDY    78  71  78 SE6       30.09R HX  80
LACON          CLOUDY    74  64  72 E3        30.10S
LAWRENCEVILLE  CLEAR     71  65  81 CALM      30.15S
LITCHFIELD     LGT RAIN  76  69  78 SE7       30.11R
$$


CITY           SKY/WX    TMP DP  RH WIND       PRES   REMARKS
LINCOLN        CLOUDY    75  67  74 CALM      30.07S
MACOMB         MOCLDY    72  70  92 SE5       30.09S
MATTOON        LGT RAIN  73  65  75 S5        30.13S
MT CARMEL AP   CLEAR     72  66  83 E3        30.14S
OLNEY-NOBLE AP NOT AVBL
PARIS          CLOUDY    69  64  83 CALM      30.15S
PEORIA         CLOUDY    78  65  63 SE5       30.10R HX  80
PONTIAC        CLOUDY    73  66  78 SE5       30.13S
RANTOUL        CLOUDY    73  62  68 SE3       30.15R
ROBINSON       PTCLDY    70  68  91 CALM      30.15F
SPRINGFIELD    CLOUDY    80  67  64 S8        30.09S HX  82
TAYLORVILLE    CLOUDY    73  64  73 SE9       30.10S
$$

...REGIONAL REPORTS...


CITY           SKY/WX    TMP DP  RH WIND       PRES   REMARKS
CHICAGO O`HARE CLOUDY    73  58  59 S6        30.13S
KANKAKEE       CLOUDY    72  64  76 CALM      30.15R
MOLINE         PTCLDY    72  67  84 E6        30.07S
MOUNT VERNON   PTCLDY    73  66  78 CALM      30.15R
PITTSFIELD     CLOUDY    78  71  77 S3        30.08R HX  81
QUINCY         CLOUDY    80  71  74 S7        30.05R HX  84
ROCKFORD       CLOUDY    72  61  68 SE8       30.11F
$$


CITY           SKY/WX    TMP DP  RH WIND       PRES   REMARKS
BURLINGTON     MOCLDY    75  70  84 E5        30.06R
CEDAR RAPIDS   CLOUDY    71  68  90 SE5       30.05R
DES MOINES     CLOUDY    75  71  87 SE6       30.02S
KIRKSVILLE     PTCLDY    77  73  87 SE3       30.06R
OTTUMWA        CLOUDY    72  71  97 E3        30.04R FOG
ST LOUIS       MOCLDY    84  70  62 S12       30.09F HX  88
$$


CITY           SKY/WX    TMP DP  RH WIND       PRES   REMARKS
TERRE HAUTE    MOCLDY    72  63  73 SE3       30.15S
EVANSVILLE     PTCLDY    74  65  73 CALM      30.15F
INDIANAPOLIS   MOCLDY    73  59  61 CALM      30.16S
LAFAYETTE      MOCLDY    69  61  75 CALM      30.15S
MADISON        CLOUDY    73  60  63 S8        30.10S
MILWAUKEE      PTCLDY    67  57  70 S7        30.12S
$$





USA.gov is the U.S. government's official web portal to all federal, state and local government web resources and services.